Regional Weather Roundup
Issued by NWS Goodland, KS

Home | Current Version | Previous Version | Graphics & Text | Print | Product List | Glossary On
Versions: 1 2 3 4 5 6 7 8 9 10 11 12 13 14 15 16 17 18 19 20 21 22 23 24 25 26 27 28 29 30 31 32 33 34 35 36 37 38 39 40 41 42 43 44 45 46 47 48 49 50
000
ASUS43 KGLD 122208
RWRGLD

GOODLAND FORECAST AREA HOURLY WEATHER ROUNDUP
NATIONAL WEATHER SERVICE GOODLAND KS
300 PM MST FRI FEB 12 2016

...OFFICIAL OBSERVATIONS...

CITY           SKY/WX    TMP DP  RH WIND       PRES   REMARKS
GOODLAND KS    CLOUDY    34  30  85 E14       30.34S
HILL CITY KS   CLOUDY    37  28  70 E8        30.43S
IMPERIAL NEB   CLOUDY    36  30  79 E9        30.36F
MCCOOK NEB     CLOUDY    37  30  75 E7        30.41R
AKRON CO       CLOUDY    40  33  76 E17       30.27F
BURLINGTON CO  PTSUNNY   42  34  73 E18       30.29S
LIMON CO       SUNNY     54  30  40 S7        30.24F
$$

...UNOFFICIAL OBSERVATIONS...

CITY           SKY/WX    TMP DP  RH WIND       PRES   REMARKS
COLBY KS       CLOUDY    34  34 100 E12       30.39S
GOVE KS          N/A     35  32  89 MISG        N/A
LENORA KS        N/A     36  32  85 MISG        N/A
NORTON KS      CLOUDY    36  27  69 E7        30.42
SHARON SPRINGS   N/A     43  34  70 E18         N/A
TRIBUNE KS     SUNNY     55  36  47 E16       30.31
KIT CARSON CO    N/A     59  31  35 MISG        N/A
YUMA CO          N/A     39  34  81 SE12        N/A
$$



USA.gov is the U.S. government's official web portal to all federal, state and local government web resources and services.